Simultaneous Nadir Overpasses (SNOs) Predictions

Prediction of SNOs between AQUA and NOAA-19 Satellite Orbit:

Table of predicted SNOs for the next 14.0 days since TLE Epoch: 4/8/2023
Index Date (AQUA) Time (AQUA) Lat,Lon (AQUA) SZA (AQUA ) Date (NOAA-19) Time (NOAA-19) Lat,Lon (NOAA-19) SZA (NOAA-19 ) Distance(km) Time Diff (sec)
1 04/09/2023 23:08:16 -76.58, 2.29 111.00 04/09/2023 23:07:03 -76.49, 1.67 111.04 18.95 73
2 04/09/2023 23:57:43 76.66, 169.66 69.08 04/09/2023 23:57:56 76.65, 169.56 69.07 2.85 13
3 04/12/2023 04:40:13 76.61, 99.22 68.21 04/12/2023 04:39:32 76.61, 99.08 68.23 3.70 41
4 04/12/2023 05:29:39 -76.68, -93.38 111.72 04/12/2023 05:30:33 -76.70, -93.30 111.72 3.06 54
5 04/14/2023 10:12:07 -76.62,-163.78 112.60 04/14/2023 10:12:09 -76.64,-163.89 112.57 3.38 2
6 04/16/2023 14:54:36 -76.60, 125.68 113.41 04/16/2023 14:53:45 -76.61, 125.65 113.39 0.86 51
7 04/16/2023 15:44:02 76.65, -66.82 66.64 04/16/2023 15:44:39 76.65, -66.89 66.64 1.84 37
8 04/18/2023 20:26:30 76.63,-137.35 65.84 04/18/2023 20:26:14 76.63,-137.28 65.84 1.82 16
9 04/18/2023 21:16:02 -76.97, 29.06 113.79 04/18/2023 21:17:10 -77.00, 31.51 113.88 61.49 68
10 04/21/2023 01:08:57 76.60, 152.16 65.04 04/21/2023 01:07:50 76.57, 152.12 65.03 3.38 67



Historial Predications of SNOs between AQUA and NOAA-19
